Regional Weather Roundup
Issued by NWS

Home | Current Version | Previous Version | Graphics & Text | Print | Product List | Glossary Off
Versions: 1 2 3 4 5 6 7 8 9 10 11 12 13 14 15 16 17 18 19 20 21 22 23 24 25 26 27 28 29 30 31 32 33 34 35 36 37 38 39 40 41 42 43 44 45 46 47 48 49 50

000
ASUS43 KMKX 220311
RWRWI

WISCONSIN REGIONAL WEATHER ROUNDUP
NATIONAL WEATHER SERVICE MILWAUKEE/SULLIVAN WI
1000 PM CDT SAT OCT 21 2017

NOTE: "FAIR" INDICATES FEW OR NO CLOUDS BELOW 12,000 FEET WITH NO
SIGNIFICANT WEATHER AND/OR OBSTRUCTIONS TO VISIBILITY.

WIZ001-002-006>008-014>016-023>028-220400-
NORTHWEST WISCONSIN

CITY           SKY/WX    TMP DP  RH WIND       PRES   REMARKS
SUPERIOR ARPT  CLOUDY    65  60  86 S7        29.65F
ASHLAND        LGT RAIN  68  57  68 S12       29.71S
HAYWARD        LGT RAIN  63  60  90 SE12      29.70F
SIREN          CLOUDY    58  54  85 W10       29.72R
CUMBERLAND     LGT RAIN  61  59  94 S8        29.71R
RICE LAKE      RAIN      63  60  88 SE9       29.73F
CHETEK         RAIN      63  61  92 SE15G22   29.72F
LADYSMITH      CLOUDY    67  58  75 SE6       29.76F
EAU CLAIRE     RAIN      63  60  90 S14G26    29.76S FOG
MENOMONIE      RAIN      63  63 100 S15       29.75R
NEW RICHMOND   CLOUDY    55  49  82 W8        29.77R
OSCEOLA        CLOUDY    56  50  80 W8        29.79R
$$

WIZ003>005-009-010-017-018-220400-
NORTH CENTRAL WISCONSIN

CITY           SKY/WX    TMP DP  RH WIND       PRES   REMARKS
MANITOWISH WTR CLOUDY    66  58  77 S12       29.79S
ARBOR VITAE    CLOUDY    67  58  72 S13G18    29.80S
WOODRUFF       CLOUDY    67  58  72 S13G18    29.80S
RHINELANDER    MOCLDY    66  58  75 S9        29.83F
EAGLE RIVER    NOT AVBL
LAND O LAKES   CLOUDY    65  56  70 S7        29.83F
PHILLIPS       CLOUDY    66  59  77 S10       29.77S
TOMAHAWK       PTCLDY    64  56  77 CALM      29.81F
MEDFORD        CLOUDY    64  57  76 S12       29.81R
MERRILL        PTCLDY    67  58  73 S9        29.82F
$$

WIZ029-030-035-036-043>047-220400-
CENTRAL WISCONSIN

CITY           SKY/WX    TMP DP  RH WIND       PRES   REMARKS
WAUSAU         PTCLDY    67  56  67 S13G23    29.82S
MOSINEE        PTCLDY    66  57  72 S15G22    29.84F
MARSHFIELD     CLOUDY    66  56  70 S9        29.80F
STEVENS POINT  CLEAR     67  56  68 S12G17    29.85R
WAUPACA        CLEAR     68  56  65 S10       29.86S
WAUTOMA        CLEAR    N/A N/A N/A S12G21    29.87S
WISC RAPIDS    CLOUDY    69  58  67 S12       29.84S
CAMP DOUGLAS   PTCLDY    71  59  67 SE13G22   29.80S
$$

WIZ011>013-019>022-031-037>040-048>050-220400-
NORTHEAST WISCONSIN

CITY           SKY/WX    TMP DP  RH WIND       PRES   REMARKS
ANTIGO         CLOUDY    65  56  72 S16       29.86F
SHAWANO        CLEAR     65  56  73 S6        29.87S
OCONTO         CLEAR     62  56  80 SE8       29.89F
STURGEON BAY   CLOUDY    63  56  78 S22G29    29.92F
GREEN BAY      CLEAR     65  58  78 S15       29.89F
MANITOWOC      CLOUDY    61  56  83 S21G29    29.94F
APPLETON       PTCLDY    64  54  68 S13       29.88
CLINTONVILLE   CLEAR     64  55  72 S7        29.86S
OSHKOSH        CLEAR     67  58  72 S14       29.89F
$$

WIZ032>034-041-042-053>061-220400-
SOUTHWEST WISCONSIN

CITY           SKY/WX    TMP DP  RH WIND       PRES   REMARKS
LA CROSSE      TSTM      68  63  84 S14       29.78R
SPARTA         CLOUDY    71  60  67 S10G20    29.79S
VIROQUA        CLOUDY    69  61  76 S13G23    29.81S
BOSCOBEL       CLOUDY    73  60  63 S12G21    29.82R
PRAIRIE DU CHI CLOUDY    73  59  61 SE10G23   29.81R
PLATTEVILLE    CLOUDY    70  62  74 S18G25    29.87S
$$

WIZ056-057-062-063-064-067-068-220400-
SOUTH CENTRAL WISCONSIN

CITY           SKY/WX    TMP DP  RH WIND       PRES   REMARKS
REEDSBURG      PTCLDY    69  60  71 S12G17    29.85R
BARABOO/DELLS  CLEAR     68  57  68 S16G23    29.87R
LONE ROCK      CLEAR     71  62  73 S14G22    29.85R
MINERAL POINT  MOCLDY    70  63  78 S14G24    29.88S
MADISON        PTCLDY    69  59  70 S16G22    29.90R
MIDDLETON      PTCLDY    71  59  65 S13       29.90R
WATERTOWN      CLOUDY    69  60  72 S15G23    29.91F
MONROE         CLOUDY    70  55  60 S15       29.91R
JANESVILLE     CLOUDY    72  57  60 S15G21    29.92S
$$

WIZ051-052-058>065-066-070>072-220400-
SOUTHEAST WISCONSIN

CITY           SKY/WX    TMP DP  RH WIND       PRES   REMARKS
MILWAUKEE      PTCLDY    68  58  70 S13       29.96F
WAUKESHA       NOT AVBL
MILWAUKEE/TIMM CLEAR     68  54  60 S10G16    29.96S
RACINE         CLEAR     64  57  78 S13       29.99S
BURLINGTON     PTCLDY    68  59  73 S9G16     29.95F
KENOSHA        CLEAR     69  57  65 S10G24    29.97F
FOND DU LAC    MOCLDY    69  56  62 S12       29.91S
SHEBOYGAN      CLOUDY    62  58  86 S10       29.95F
WEST BEND      PTCLDY    63  55  77 S6        29.95S
JUNEAU         CLOUDY    69  58  68 S18G24    29.92F
$$

LSZ147-162-220400-
LAKE SUPERIOR

STATION/POSITION TIME  TEMP    WIND        PRES    WAVE
                       AIR SEA DIR/SP/G            HT/PER
                 (UTC) (F)     (DEG/KT/KT) (MB)    (FT/S)
W MID LAKE BUOY  0150   59 52              1006.2F   1/ 4
DEVILS ISLAND    0300   66     180/ 10/ 13 1005.4F
PORT WING        0140          180/ 10/ 18 1005.1
SAXON HARBOR     0230   71     200/ 11/ 17 1005.8S
$$

LMZ867-665-643>646-220400-
LAKE MICHIGAN

STATION/POSITION TIME  TEMP    WIND        PRES    WAVE
                       AIR SEA DIR/SP/G            HT/PER
                 (UTC) (F)     (DEG/KT/KT) (MB)    (FT/S)
S GREEN BAY BUOY 0300   64 58  160/ 19/ 23 1011.9
N MID LAKE BUOY  0250   64 58  170/ 21/ 25 1013.9F   6/ 6
NORTHPORT PIER   0240   61     160/ 11/ 19 1013.5S
KEWAUNEE LAKESHO 0248   54     180/  9/ 11 1013.3F
SHEBOYGAN LAKESH 0300   57     180/ 16/ 17 1014.3S
PORT WASHINGTON  0240   57     190/  4/  7 1015.2F
ATWATER BUOY     0109   58 52  160/ 16/ 19 1014.6F
MILWAUKEE LAKESH 0250   58     150/ 13/ 14   N/A
S MID LAKE BUOY  0150   65 61  150/ 16/ 17 1016.5R   3/ 4
KENOSHA   LAKESH 0300   58     170/ 14/ 16 1014.9
$$

TC  - TEMPERATURE IN CELSIUS
VSB - VISIBILITY IN STATUTE MILES
WCI - WIND CHILL INDEX
HX  - HEAT INDEX





USA.gov is the U.S. government's official web portal to all federal, state and local government web resources and services.